GW6671 Weather Reports


time (UTC)temp
C
wind
direction
speed
KPH
gust
KPH
rain 1hr
cm
rain 24hr
cm
rain mn
cm
humidity
%
barometer
mb
20260506004543 21 355 22.5 35.4 0.00 0.00 0.00 23 1010.4
20260506004031 21 5 25.7 37.0 0.00 0.00 0.00 24 1010.5
20260506003531 21 345 27.4 37.0 0.00 0.00 0.00 26 1010.5
20260506003043 21 350 22.5 33.8 0.00 0.00 0.00 26 1010.3
20260506002532 22 331 19.3 33.8 0.00 0.00 0.00 27 1010.3
20260506002030 22 334 17.7 33.8 0.00 0.00 0.00 27 1010.3
20260506001544 22 13 24.1 33.8 0.00 0.00 0.00 25 1010.4
20260506001033 22 5 14.5 32.2 0.00 0.00 0.00 30 1010.2
20260506000533 21 343 16.1 33.8 0.00 0.00 0.00 25 1010.2
20260506000051 21 316 24.1 33.8 0.00 0.00 0.00 29 1010.2
20260505235532 22 336 24.1 35.4 0.00 0.00 0.00 27 1010.2
20260505235033 22 323 24.1 35.4 0.00 0.00 0.00 29 1010.1
20260505234540 22 332 16.1 32.2 0.00 0.00 0.00 28 1010.0
20260505234036 22 360 19.3 35.4 0.00 0.00 0.00 25 1010.0
20260505233534 22 335 24.1 35.4 0.00 0.00 0.00 28 1010.1
20260505233038 23 334 25.7 35.4 0.00 0.00 0.00 26 1010.1
20260505232532 22 328 19.3 32.2 0.00 0.00 0.00 27 1010.0
20260505232035 22 347 16.1 30.6 0.00 0.00 0.00 30 1010.0
20260505231541 22 338 17.7 30.6 0.00 0.00 0.00 30 1010.0
20260505231033 22 329 16.1 32.2 0.00 0.00 0.00 27 1010.0
20260505230535 22 334 19.3 32.2 0.00 0.00 0.00 29 1010.0
20260505230045 22 344 17.7 32.2 0.00 0.00 0.00 31 1010.0
20260505225533 22 355 24.1 33.8 0.00 0.00 0.00 25 1010.1
20260505225034 23 15 22.5 33.8 0.00 0.00 0.00 24 1010.0
20260505224546 23 25 22.5 33.8 0.00 0.00 0.00 26 1010.1
20260505224034 22 352 22.5 30.6 0.00 0.00 0.00 29 1010.1
20260505223534 22 346 20.9 33.8 0.00 0.00 0.00 31 1010.1
20260505223042 23 355 20.9 40.2 0.00 0.00 0.00 28 1010.1
20260505222534 23 17 19.3 40.2 0.00 0.00 0.00 25 1010.2
20260505222034 23 5 22.5 40.2 0.00 0.00 0.00 23 1010.2
20260505221546 23 13 19.3 33.8 0.00 0.00 0.00 23 1010.3
20260505221033 23 355 19.3 30.6 0.00 0.00 0.00 23 1010.2
20260505220535 23 323 16.1 27.4 0.00 0.00 0.00 34 1010.3
20260505220059 22 316 11.3 25.7 0.00 0.00 0.00 32 1010.3
20260505215533 22 327 16.1 29.0 0.00 0.00 0.00 33 1010.4
20260505215031 22 343 17.7 38.6 0.00 0.00 0.00 30 1010.4
20260505214551 22 360 24.1 38.6 0.00 0.00 0.00 31 1010.4
20260505214034 22 322 20.9 37.0 0.00 0.00 0.00 28 1010.4
20260505213534 22 10 24.1 37.0 0.00 0.00 0.00 26 1010.4
20260505213044 22 311 16.1 30.6 0.00 0.00 0.00 30 1010.6
20260505212534 22 339 17.7 30.6 0.00 0.00 0.00 31 1010.4
20260505212034 22 323 20.9 30.6 0.00 0.00 0.00 30 1010.6
20260505211545 22 352 19.3 30.6 0.00 0.00 0.00 32 1010.4
20260505211034 22 325 16.1 35.4 0.00 0.00 0.00 33 1010.5
20260505210533 21 321 20.9 35.4 0.00 0.00 0.00 33 1010.6
20260505210046 22 360 22.5 33.8 0.00 0.00 0.00 30 1010.6
20260505205533 22 360 16.1 35.4 0.00 0.00 0.00 33 1010.4
20260505205031 22 347 11.3 35.4 0.00 0.00 0.00 31 1010.6
20260505204547 22 327 22.5 35.4 0.00 0.00 0.00 30 1010.8
20260505204030 22 34 17.7 30.6 0.00 0.00 0.00 27 1010.7
20260505203534 22 317 14.5 37.0 0.00 0.00 0.00 33 1010.5
20260505203035 22 331 22.5 37.0 0.00 0.00 0.00 33 1010.7
20260505202532 22 26 8.0 33.8 0.00 0.00 0.00 33 1010.8
20260505202035 22 12 24.1 33.8 0.00 0.00 0.00 28 1010.7
20260505201548 22 347 14.5 33.8 0.00 0.00 0.00 35 1010.7
20260505201032 22 49 19.3 33.8 0.00 0.00 0.00 28 1010.7
20260505200531 22 333 17.7 32.2 0.00 0.00 0.00 32 1010.8
20260505200042 21 339 20.9 32.2 0.00 0.00 0.00 35 1010.9
20260505195532 21 337 17.7 33.8 0.00 0.00 0.00 33 1010.9
20260505195033 22 341 19.3 33.8 0.00 0.00 0.00 38 1010.9
20260505194540 22 14 24.1 37.0 0.00 0.00 0.00 29 1010.9
20260505194033 21 327 22.5 37.0 0.00 0.00 0.00 30 1010.9
20260505193531 22 5 25.7 37.0 0.00 0.00 0.00 31 1010.8
20260505193042 22 77 25.7 33.8 0.00 0.00 0.00 28 1010.9
20260505192530 21 355 24.1 33.8 0.00 0.00 0.00 32 1010.8
20260505192031 22 321 24.1 40.2 0.00 0.00 0.00 34 1010.8
20260505191537 21 355 20.9 40.2 0.00 0.00 0.00 30 1010.8
20260505191035 22 5 20.9 40.2 0.00 0.00 0.00 30 1010.6
20260505190533 22 360 27.4 40.2 0.00 0.00 0.00 30 1010.7
20260505190043 22 348 22.5 40.2 0.00 0.00 0.00 32 1010.7
20260505185531 22 25 25.7 40.2 0.00 0.00 0.00 34 1010.6
20260505185036 22 355 27.4 38.6 0.00 0.00 0.00 31 1010.6
20260505184550 23 24 20.9 38.6 0.00 0.00 0.00 29 1010.6
20260505184032 22 5 22.5 38.6 0.00 0.00 0.00 30 1010.7
20260505183531 22 360 20.9 38.6 0.00 0.00 0.00 30 1010.7
20260505183049 22 19 19.3 35.4 0.00 0.00 0.00 30 1010.6
20260505182531 22 338 22.5 35.4 0.00 0.00 0.00 31 1010.6
20260505182031 22 355 19.3 33.8 0.00 0.00 0.00 32 1010.6
20260505181539 21 14 19.3 33.8 0.00 0.00 0.00 35 1010.6
20260505181030 22 18 22.5 30.6 0.00 0.00 0.00 31 1010.5
20260505180531 21 5 17.7 29.0 0.00 0.00 0.00 33 1010.5
20260505180040 21 17 19.3 29.0 0.00 0.00 0.00 33 1010.5
20260505175534 21 355 20.9 30.6 0.00 0.00 0.00 35 1010.6
20260505175031 20 340 19.3 30.6 0.00 0.00 0.00 31 1010.4
20260505174537 21 9 20.9 43.5 0.00 0.00 0.00 33 1010.6
20260505174032 20 345 16.1 43.5 0.00 0.00 0.00 41 1010.6
20260505173532 20 23 16.1 30.6 0.00 0.00 0.00 35 1010.5
20260505173043 20 360 14.5 30.6 0.00 0.00 0.00 36 1010.3
20260505172528 20 40 17.7 29.0 0.00 0.00 0.00 36 1010.6
20260505172032 20 11 14.5 29.0 0.00 0.00 0.00 40 1010.6
20260505171546 19 52 12.9 22.5 0.00 0.00 0.00 38 1010.6
20260505171032 18 109 9.7 25.7 0.00 0.00 0.00 41 1010.6
20260505170531 18 101 9.7 25.7 0.00 0.00 0.00 43 1010.6
20260505170043 18 111 6.4 19.3 0.00 0.00 0.00 43 1010.7
20260505165536 18 76 9.7 19.3 0.00 0.00 0.00 44 1010.6
20260505165035 17 83 6.4 12.9 0.00 0.00 0.00 47 1010.6
20260505164553 17 107 6.4 12.9 0.00 0.00 0.00 47 1010.5
20260505164034 17 77 3.2 12.9 0.00 0.00 0.00 45 1010.6
20260505163534 16 105 4.8 16.1 0.00 0.00 0.00 47 1010.7
20260505163039 16 190 4.8 16.1 0.00 0.00 0.00 48 1010.6
20260505162533 16 128 9.7 16.1 0.00 0.00 0.00 49 1010.7
20260505162031 16 88 1.6 11.3 0.00 0.00 0.00 51 1010.7
20260505161549 16 88 4.8 11.3 0.00 0.00 0.00 51 1010.7
20260505161031 15 116 6.4 14.5 0.00 0.00 0.00 54 1010.6
20260505160533 15 100 11.3 14.5 0.00 0.00 0.00 60 1010.8
20260505153045 12 121 6.4 12.9 0.00 0.00 0.00 64 1010.7
20260505152537 12 95 4.8 12.9 0.00 0.00 0.00 63 1010.6
20260505152033 12 140 3.2 9.7 0.00 0.00 0.00 64 1010.5
20260505151538 12 145 3.2 6.4 0.00 0.00 0.00 67 1010.6
20260505151033 11 145 3.2 6.4 0.00 0.00 0.00 66 1010.6
20260505150534 11 145 3.2 6.4 0.00 0.00 0.00 70 1010.5
20260505140537 7 0 0.0 16.1 0.00 0.00 0.00 77 1010.5
20260505125033 2 329 3.2 6.4 0.00 0.00 0.00 84 1009.9
20260505124549 2 0 1.6 4.8 0.00 0.00 0.00 85 1009.8
20260505124029 2 309 1.6 11.3 0.00 0.00 0.00 83 1009.7
20260505123532 3 15 3.2 11.3 0.00 0.00 0.00 82 1009.7
20260505123043 2 0 1.6 9.7 0.00 0.00 0.00 84 1009.6
20260505122533 2 288 3.2 12.9 0.00 0.00 0.00 84 1009.7
20260505122034 2 265 3.2 12.9 0.00 0.00 0.00 83 1009.5
20260505121549 2 0 1.6 9.7 0.00 0.00 0.00 83 1009.5
20260505121031 3 0 1.6 9.7 0.00 0.00 0.00 84 1009.5
20260505120530 2 295 1.6 8.0 0.00 0.00 0.00 86 1009.5
20260505120048 2 287 3.2 6.4 0.00 0.00 0.00 85 1009.5
20260505115531 2 0 0.0 4.8 0.00 0.00 0.00 83 1009.7
20260505115034 2 338 1.6 4.8 0.00 0.00 0.00 84 1009.5
20260505114543 2 338 1.6 4.8 0.00 0.00 0.00 81 1009.5
20260505114031 2 0 1.6 4.8 0.00 0.00 0.00 81 1009.6
20260505113531 2 338 0.0 4.8 0.00 0.00 0.00 83 1009.5
20260505113049 2 338 1.6 8.0 0.00 0.00 0.00 81 1009.5
20260505112531 2 338 3.2 8.0 0.00 0.00 0.00 78 1009.5
20260505112032 3 5 3.2 8.0 0.00 0.00 0.00 76 1009.5
20260505111538 3 360 1.6 12.9 0.00 0.00 0.00 79 1009.5
20260505111031 3 0 3.2 12.9 0.00 0.00 0.00 78 1009.5
20260505110532 4 0 3.2 6.4 0.00 0.00 0.00 80 1009.4
20260505102031 5 310 0.0 6.4 0.00 0.00 0.00 76 1009.4
20260505101546 5 310 0.0 6.4 0.00 0.00 0.00 78 1009.4
20260505101031 4 0 1.6 6.4 0.00 0.00 0.00 78 1009.3
20260505100534 4 0 0.0 6.4 0.00 0.00 0.00 79 1009.3
20260505100039 5 0 0.0 3.2 0.00 0.00 0.00 77 1009.3
20260505095531 4 0 0.0 3.2 0.00 0.00 0.00 79 1009.4
20260505095033 5 284 1.6 3.2 0.00 0.00 0.00 77 1009.3
20260505094545 5 284 0.0 4.8 0.00 0.00 0.00 77 1009.3
20260505094031 4 0 0.0 8.0 0.00 0.00 0.00 79 1009.4
20260505093530 4 284 3.2 8.0 0.00 0.00 0.00 78 1009.5
20260505093050 4 284 4.8 8.0 0.00 0.00 0.00 75 1009.5
20260505092531 5 11 1.6 8.0 0.00 0.00 0.00 72 1009.5
20260505092031 5 11 1.6 8.0 0.00 0.00 0.00 74 1009.4
20260505091540 5 0 0.0 4.8 0.00 0.00 0.00 77 1009.4
20260505091033 5 0 0.0 4.8 0.00 0.00 0.00 82 1009.4
20260505090531 3 355 1.6 4.8 0.00 0.00 0.00 82 1009.5
20260505090044 4 355 1.6 4.8 0.00 0.00 0.00 79 1009.7
20260505085531 4 355 1.6 4.8 0.00 0.00 0.00 78 1009.5
20260505085033 4 355 0.0 4.8 0.00 0.00 0.00 76 1009.5
20260505084553 5 355 0.0 3.2 0.00 0.00 0.00 76 1009.5
20260505084031 5 0 0.0 3.2 0.00 0.00 0.00 77 1009.6
20260505083530 5 355 0.0 3.2 0.00 0.00 0.00 76 1009.6
20260505083051 5 0 0.0 8.0 0.00 0.00 0.00 76 1009.6
20260505082531 5 0 3.2 8.0 0.00 0.00 0.00 75 1009.6
20260505082033 6 360 3.2 8.0 0.00 0.00 0.00 76 1009.7
20260505081549 7 300 1.6 4.8 0.00 0.00 0.00 74 1009.7
20260505081031 6 0 0.0 4.8 0.00 0.00 0.00 74 1009.7
20260505080532 6 300 0.0 6.4 0.00 0.00 0.00 74 1009.7
20260505080043 6 300 3.2 6.4 0.00 0.00 0.00 75 1009.6
20260505075533 7 300 3.2 6.4 0.00 0.00 0.00 71 1009.7
20260505075033 7 300 0.0 4.8 0.00 0.00 0.00 70 1009.7
20260505074550 7 0 1.6 4.8 0.00 0.00 0.00 71 1009.8
20260505074034 7 300 3.2 4.8 0.00 0.00 0.00 72 1009.8
20260505073531 7 300 0.0 4.8 0.00 0.00 0.00 73 1009.8
20260505073039 6 300 0.0 6.4 0.00 0.00 0.00 75 1009.9
20260505072536 7 300 3.2 6.4 0.00 0.00 0.00 71 1009.9
20260505072034 7 0 1.6 6.4 0.00 0.00 0.00 69 1009.8
20260505071545 8 333 1.6 6.4 0.00 0.00 0.00 67 1009.7
20260505071034 8 333 3.2 9.7 0.00 0.00 0.00 64 1009.8
20260505070534 8 329 4.8 9.7 0.00 0.00 0.00 67 1009.6
20260505070047 8 329 4.8 8.0 0.00 0.00 0.00 66 1009.5
20260505065535 8 338 4.8 8.0 0.00 0.00 0.00 64 1009.4
20260505065033 7 336 3.2 9.7 0.00 0.00 0.00 66 1009.3
20260505064540 7 336 4.8 12.9 0.00 0.00 0.00 68 1009.2
20260505064033 7 323 6.4 12.9 0.00 0.00 0.00 69 1009.3
20260505063533 7 294 8.0 12.9 0.00 0.00 0.00 70 1009.1
20260505063047 7 309 6.4 11.3 0.00 0.00 0.00 67 1009.1
20260505062532 10 313 0.0 4.8 0.00 0.00 0.00 56 1009.1
20260505062034 10 0 0.0 4.8 0.00 0.00 0.00 56 1009.0
20260505061538 9 27 3.2 8.0 0.00 0.00 0.00 56 1009.0
20260505061031 8 27 3.2 8.0 0.00 0.00 0.00 58 1009.1
20260505060532 8 0 1.6 6.4 0.00 0.00 0.00 62 1008.9
20260505060040 7 284 1.6 6.4 0.00 0.00 0.00 66 1008.9
20260505055532 9 181 4.8 8.0 0.00 0.00 0.00 58 1008.8
20260505055032 9 178 3.2 11.3 0.00 0.00 0.00 55 1008.7
20260505054538 10 176 6.4 11.3 0.00 0.00 0.00 54 1008.7
20260505054034 10 186 8.0 11.3 0.00 0.00 0.00 50 1008.7
20260505053533 11 195 9.7 11.3 0.00 0.00 0.00 50 1008.8
20260505053105 10 192 6.4 11.3 0.00 0.00 0.00 52 1008.7
20260505052531 10 202 6.4 11.3 0.00 0.00 0.00 60 1008.7
20260505052032 11 157 6.4 17.7 0.00 0.00 0.00 55 1008.6
20260505051538 12 129 9.7 17.7 0.00 0.00 0.00 50 1008.6
20260505051032 12 123 9.7 17.7 0.00 0.00 0.00 52 1008.6
20260505050533 12 125 6.4 14.5 0.00 0.00 0.00 49 1008.5
20260505041545 11 278 4.8 9.7 0.00 0.00 0.00 49 1007.7
20260505041031 12 258 4.8 6.4 0.00 0.00 0.00 46 1007.6
20260505040531 12 265 3.2 6.4 0.00 0.00 0.00 44 1007.5
20260505040042 11 290 3.2 6.4 0.00 0.00 0.00 51 1007.5
20260505035534 13 290 1.6 9.7 0.00 0.00 0.00 40 1007.4
20260505035030 13 308 4.8 9.7 0.00 0.00 0.00 38 1007.4
20260505034538 13 294 3.2 9.7 0.00 0.00 0.00 38 1007.1
20260505034036 12 265 1.6 11.3 0.00 0.00 0.00 42 1007.1
20260505033532 12 290 1.6 12.9 0.00 0.00 0.00 48 1007.0
20260505033045 12 315 6.4 14.5 0.00 0.00 0.00 44 1006.8
20260505032534 13 302 8.0 14.5 0.00 0.00 0.00 40 1006.7
20260505032033 13 308 8.0 16.1 0.00 0.00 0.00 39 1006.8
20260505031545 14 308 11.3 16.1 0.00 0.00 0.00 37 1006.8
20260505031034 13 304 8.0 12.9 0.00 0.00 0.00 41 1006.6
20260505030533 13 289 8.0 12.9 0.00 0.00 0.00 41 1006.6
20260505030046 15 300 8.0 16.1 0.00 0.00 0.00 40 1006.6
20260505025534 18 323 8.0 19.3 0.00 0.00 0.00 28 1006.5
20260505025033 19 360 12.9 19.3 0.00 0.00 0.00 26 1006.4
20260505024540 20 360 12.9 20.9 0.00 0.00 0.00 22 1006.4
20260505024033 20 23 16.1 22.5 0.00 0.00 0.00 20 1006.4
20260505023534 20 352 14.5 22.5 0.00 0.00 0.00 21 1006.3
20260505023046 20 11 9.7 22.5 0.00 0.00 0.00 22 1006.2
20260505022536 21 13 14.5 24.1 0.00 0.00 0.00 20 1006.2
20260505022033 21 15 11.3 24.1 0.00 0.00 0.00 21 1006.3
20260505021537 21 12 14.5 24.1 0.00 0.00 0.00 20 1006.1
20260505021034 21 355 12.9 25.7 0.00 0.00 0.00 20 1006.1
20260505020532 21 352 17.7 29.0 0.00 0.00 0.00 22 1006.2
20260505020045 21 360 16.1 29.0 0.00 0.00 0.00 21 1006.0
20260505015532 20 352 14.5 27.4 0.00 0.00 0.00 23 1006.0
20260505015033 20 348 16.1 25.7 0.00 0.00 0.00 28 1006.1
20260505014544 21 338 16.1 25.7 0.00 0.00 0.00 26 1006.1
20260505014034 21 342 16.1 27.4 0.00 0.00 0.00 24 1006.0
20260505013536 21 355 12.9 27.4 0.00 0.00 0.00 26 1006.2
20260505013043 21 5 17.7 27.4 0.00 0.00 0.00 25 1006.1
20260505012533 21 332 16.1 25.7 0.00 0.00 0.00 24 1006.1
20260505012035 22 25 14.5 24.1 0.00 0.00 0.00 20 1006.0
20260505011557 21 346 14.5 27.4 0.00 0.00 0.00 25 1006.1
20260505011034 21 332 14.5 27.4 0.00 0.00 0.00 23 1006.1
20260505010534 21 355 14.5 25.7 0.00 0.00 0.00 22 1006.3
20260505010039 22 346 19.3 30.6 0.00 0.00 0.00 20 1006.2
20260505005533 22 5 19.3 30.6 0.00 0.00 0.00 18 1006.2
20260505005035 22 360 20.9 30.6 0.00 0.00 0.00 19 1006.2